When you browse on this site, cookies collect data to enhance your experience and personalize the content and advertising you see.
Visit our Privacy Policy to learn more. By continuing to use the site, you agree to this use of cookies and data.
  • In Hungary
  • List of Countries
  • For 7 days
  • Water Temperature
  • Weather Map
  • News
  • Weather Widgets
  • user-avatar
    Login

    Hourly Weather San Isidro

    Today, 12 November, Tuesday

    Time Temperature Precipitation Wind Pressure Humidity
    00:00 +22°C° 0 mm 1 mps 696 mmHg 89%
    01:00 +22°C° 0 mm 1 mps 696 mmHg 89%
    02:00 +22°C° 0 mm 1 mps 695 mmHg 88%
    03:00 +22°C° 0 mm 1 mps 695 mmHg 87%
    04:00 +22°C° 0 mm 1 mps 695 mmHg 87%
    05:00 +22°C° 0 mm 1 mps 696 mmHg 86%
    06:00 +21°C° 0 mm 2 mps 696 mmHg 86%
    07:00 +24°C° 0 mm 1 mps 697 mmHg 80%
    08:00 +26°C° 0 mm 1 mps 697 mmHg 74%
    09:00 +28°C° 0 mm 1 mps 698 mmHg 68%
    10:00 +28°C° 0.3 mm 1 mps 698 mmHg 70%
    11:00 +28°C° 0.3 mm 2 mps 697 mmHg 73%
    12:00 +28°C° 0.3 mm 2 mps 697 mmHg 76%
    13:00 +27°C° 1.4 mm 1 mps 696 mmHg 81%
    14:00 +26°C° 1.4 mm 1 mps 695 mmHg 86%
    15:00 +25°C° 1.4 mm 1 mps 695 mmHg 91%
    16:00 +24°C° 0.5 mm 1 mps 695 mmHg 92%
    17:00 +24°C° 0.5 mm 1 mps 695 mmHg 93%
    18:00 +23°C° 0.5 mm 1 mps 696 mmHg 94%
    19:00 +23°C° 0.1 mm 1 mps 696 mmHg 93%
    20:00 +23°C° 0.1 mm 1 mps 697 mmHg 91%
    21:00 +22°C° 0.1 mm 1 mps 697 mmHg 90%
    22:00 +22°C° 0 mm 1 mps 697 mmHg 87%
    23:00 +22°C° 0 mm 1 mps 697 mmHg 85%

    Tomorrow, 13 November, Wednesday

    Time Temperature Precipitation Wind Pressure Humidity
    00:00 +22°C° 0 mm 1 mps 696 mmHg 82%
    01:00 +21°C° 0.1 mm 1 mps 696 mmHg 81%
    02:00 +21°C° 0.1 mm 1 mps 696 mmHg 79%
    03:00 +21°C° 0.1 mm 1 mps 695 mmHg 78%
    04:00 +21°C° 0 mm 1 mps 696 mmHg 77%
    05:00 +21°C° 0 mm 1 mps 696 mmHg 77%
    06:00 +21°C° 0 mm 1 mps 697 mmHg 77%
    07:00 +23°C° 0 mm 1 mps 698 mmHg 73%
    08:00 +26°C° 0 mm 1 mps 698 mmHg 69%
    09:00 +28°C° 0 mm 1 mps 699 mmHg 65%
    10:00 +28°C° 0.1 mm 1 mps 699 mmHg 67%
    11:00 +28°C° 0.1 mm 1 mps 698 mmHg 69%
    12:00 +28°C° 0.1 mm 2 mps 697 mmHg 71%
    13:00 +27°C° 0.6 mm 1 mps 697 mmHg 77%
    14:00 +26°C° 0.6 mm 1 mps 696 mmHg 84%
    15:00 +25°C° 0.6 mm 1 mps 696 mmHg 90%
    16:00 +23°C° 0.6 mm 0 mps 696 mmHg 92%
    17:00 +22°C° 0.6 mm 0 mps 696 mmHg 94%
    18:00 +21°C° 0.6 mm 0 mps 697 mmHg 96%
    19:00 +21°C° 0.3 mm 0 mps 697 mmHg 95%
    20:00 +21°C° 0.3 mm 0 mps 698 mmHg 94%
    21:00 +21°C° 0.3 mm 0 mps 698 mmHg 93%
    22:00 +20°C° 0.3 mm 0 mps 698 mmHg 92%
    23:00 +20°C° 0.3 mm 0 mps 698 mmHg 91%

    Day after tomorrow, 14 November, Thursday

    Time Temperature Precipitation Wind Pressure Humidity
    00:00 +20°C° 0.3 mm 0 mps 698 mmHg 90%
    01:00 +20°C° 0.3 mm 0 mps 697 mmHg 90%
    02:00 +20°C° 0.3 mm 0 mps 697 mmHg 89%
    03:00 +21°C° 0.3 mm 1 mps 697 mmHg 88%
    04:00 +21°C° 0.2 mm 1 mps 697 mmHg 87%
    05:00 +21°C° 0.2 mm 1 mps 698 mmHg 86%
    06:00 +21°C° 0.2 mm 1 mps 698 mmHg 85%
    07:00 +23°C° 0 mm 1 mps 699 mmHg 80%
    08:00 +25°C° 0 mm 1 mps 699 mmHg 75%
    09:00 +27°C° 0 mm 1 mps 700 mmHg 71%
    10:00 +27°C° 0.2 mm 1 mps 699 mmHg 71%
    11:00 +28°C° 0.2 mm 1 mps 699 mmHg 72%
    12:00 +28°C° 0.2 mm 2 mps 698 mmHg 73%
    13:00 +27°C° 1.2 mm 1 mps 698 mmHg 79%
    14:00 +26°C° 1.2 mm 1 mps 697 mmHg 85%
    15:00 +25°C° 1.2 mm 1 mps 697 mmHg 91%
    16:00 +24°C° 2 mm 1 mps 697 mmHg 93%
    17:00 +24°C° 2 mm 1 mps 697 mmHg 95%
    18:00 +23°C° 2 mm 1 mps 698 mmHg 96%
    19:00 +21°C° 0.2 mm 0 mps 698 mmHg 95%
    20:00 +21°C° 0.2 mm 0 mps 698 mmHg 93%
    21:00 +20°C° 0.2 mm 0 mps 699 mmHg 92%
    22:00 +20°C° 0 mm 0 mps 698 mmHg 91%
    23:00 +22°C° 0 mm 1 mps 698 mmHg 90%

    15 November, Friday

    Time Temperature Precipitation Wind Pressure Humidity
    00:00 +22°C° 0 mm 1 mps 698 mmHg 90%
    01:00 +22°C° 0 mm 1 mps 697 mmHg 89%
    02:00 +21°C° 0 mm 1 mps 697 mmHg 88%
    03:00 +21°C° 0 mm 1 mps 697 mmHg 87%
    04:00 +21°C° 0 mm 1 mps 697 mmHg 87%
    05:00 +21°C° 0 mm 1 mps 697 mmHg 87%
    06:00 +21°C° 0 mm 1 mps 698 mmHg 87%
    07:00 +23°C° 0 mm 1 mps 698 mmHg 81%
    08:00 +25°C° 0 mm 1 mps 699 mmHg 75%
    09:00 +28°C° 0 mm 1 mps 699 mmHg 69%
    10:00 +28°C° 0.2 mm 1 mps 699 mmHg 72%
    11:00 +27°C° 0.2 mm 1 mps 698 mmHg 75%
    12:00 +27°C° 0.2 mm 1 mps 698 mmHg 77%
    13:00 +27°C° 0.6 mm 1 mps 697 mmHg 82%
    14:00 +26°C° 0.6 mm 1 mps 697 mmHg 86%
    15:00 +25°C° 0.6 mm 1 mps 696 mmHg 90%
    16:00 +23°C° 0.2 mm 0 mps 696 mmHg 92%
    17:00 +22°C° 0.2 mm 0 mps 697 mmHg 93%
    18:00 +21°C° 0.2 mm 0 mps 697 mmHg 95%
    19:00 +21°C° 0.1 mm 0 mps 697 mmHg 94%
    20:00 +23°C° 0.1 mm 1 mps 698 mmHg 93%
    21:00 +22°C° 0.1 mm 1 mps 698 mmHg 92%
    22:00 +22°C° 0.1 mm 1 mps 698 mmHg 91%
    23:00 +22°C° 0.1 mm 1 mps 697 mmHg 90%

    16 November, Saturday

    Time Temperature Precipitation Wind Pressure Humidity
    00:00 +21°C° 0.1 mm 1 mps 697 mmHg 88%
    01:00 +21°C° 0 mm 1 mps 696 mmHg 88%
    02:00 +21°C° 0 mm 1 mps 696 mmHg 87%
    03:00 +21°C° 0 mm 1 mps 696 mmHg 86%
    04:00 +21°C° 0 mm 1 mps 696 mmHg 86%
    05:00 +21°C° 0 mm 1 mps 696 mmHg 86%
    06:00 +22°C° 0 mm 1 mps 697 mmHg 86%
    07:00 +24°C° 0 mm 1 mps 697 mmHg 81%
    08:00 +26°C° 0 mm 1 mps 698 mmHg 76%
    09:00 +28°C° 0 mm 1 mps 698 mmHg 71%
    10:00 +28°C° 0.3 mm 1 mps 698 mmHg 73%
    11:00 +28°C° 0.3 mm 1 mps 697 mmHg 75%
    12:00 +28°C° 0.3 mm 1 mps 697 mmHg 77%
    13:00 +27°C° 1.1 mm 1 mps 696 mmHg 82%
    14:00 +26°C° 1.1 mm 1 mps 696 mmHg 86%
    15:00 +25°C° 1.1 mm 1 mps 695 mmHg 91%
    16:00 +25°C° 0.7 mm 1 mps 695 mmHg 93%
    17:00 +24°C° 0.7 mm 1 mps 695 mmHg 94%
    18:00 +21°C° 0.7 mm 0 mps 696 mmHg 96%
    19:00 +23°C° 0.2 mm 1 mps 696 mmHg 95%
    20:00 +23°C° 0.2 mm 1 mps 697 mmHg 93%
    21:00 +22°C° 0.2 mm 1 mps 697 mmHg 92%
    22:00 +22°C° 0.1 mm 1 mps 697 mmHg 91%
    23:00 +22°C° 0.1 mm 1 mps 696 mmHg 90%

    17 November, Sunday

    Time Temperature Precipitation Wind Pressure Humidity
    00:00 +22°C° 0.1 mm 1 mps 696 mmHg 89%
    01:00 +21°C° 0 mm 1 mps 696 mmHg 87%
    02:00 +21°C° 0 mm 1 mps 695 mmHg 86%
    03:00 +20°C° 0 mm 2 mps 695 mmHg 84%
    04:00 +20°C° 0 mm 2 mps 695 mmHg 83%
    05:00 +20°C° 0 mm 2 mps 696 mmHg 82%
    06:00 +20°C° 0 mm 2 mps 696 mmHg 81%
    07:00 +23°C° 0 mm 1 mps 697 mmHg 76%
    08:00 +25°C° 0 mm 1 mps 697 mmHg 70%
    09:00 +28°C° 0 mm 1 mps 698 mmHg 65%
    10:00 +28°C° 0.1 mm 1 mps 698 mmHg 66%
    11:00 +28°C° 0.1 mm 1 mps 697 mmHg 67%
    12:00 +29°C° 0.1 mm 2 mps 697 mmHg 69%
    13:00 +28°C° 0.6 mm 1 mps 696 mmHg 75%
    14:00 +27°C° 0.6 mm 1 mps 695 mmHg 82%
    15:00 +26°C° 0.6 mm 1 mps 695 mmHg 89%
    16:00 +25°C° 0.9 mm 1 mps 695 mmHg 91%
    17:00 +22°C° 0.9 mm 0 mps 695 mmHg 94%
    18:00 +22°C° 0.9 mm 0 mps 696 mmHg 96%
    19:00 +21°C° 1.2 mm 0 mps 696 mmHg 96%
    20:00 +21°C° 1.2 mm 0 mps 696 mmHg 95%
    21:00 +23°C° 1.2 mm 1 mps 697 mmHg 94%
    22:00 +23°C° 0.6 mm 1 mps 697 mmHg 93%
    23:00 +22°C° 0.6 mm 1 mps 696 mmHg 92%
    Show more